This is the latest recevied weather packets stored in our database for station/object AE6BH. If no packets are shown the sender has not sent any weather packets the latest 10 day(s).
| Time | Temp. | Humidity | Pressure | Rain* | Wind** | Luminosity | Snow |
|---|---|---|---|---|---|---|---|
| 1777605110 | 15° C | 71% | 1013 hPa | 0 mm | - | 0 W/m² | - |
| 1777604806 | 15° C | 71% | 1013.2 hPa | 0 mm | - | 0 W/m² | - |
| 1777604503 | 15° C | 70% | 1012.9 hPa | 0 mm | - | 0 W/m² | - |
| 1777604203 | 15° C | 70% | 1013 hPa | 0 mm | - | 0 W/m² | - |
| 1777603899 | 15° C | 70% | 1012.9 hPa | 0 mm | - | 0 W/m² | - |
| 1777603596 | 15.56° C | 70% | 1013 hPa | 0 mm | - | 0 W/m² | - |
| 1777603292 | 15.56° C | 69% | 1012.9 hPa | 0 mm | - | 0 W/m² | - |
| 1777602987 | 15.56° C | 69% | 1013 hPa | 0 mm | - | 0 W/m² | - |
| 1777602682 | 15.56° C | 68% | 1012.8 hPa | 0 mm | - | 1 W/m² | - |
| 1777602378 | 15.56° C | 68% | 1012.9 hPa | 0 mm | - | 3 W/m² | - |
| 1777602074 | 16.11° C | 68% | 1012.8 hPa | 0 mm | - | 5 W/m² | - |
| 1777601769 | 16.11° C | 67% | 1012.7 hPa | 0 mm | - | 9 W/m² | - |
| 1777601464 | 16.11° C | 67% | 1012.7 hPa | 0 mm | - | 12 W/m² | - |
| 1777601160 | 16.67° C | 66% | 1012.4 hPa | 0 mm | - | 14 W/m² | - |
| 1777600858 | 16.67° C | 66% | 1012.7 hPa | 0 mm | - | 17 W/m² | - |
| 1777600553 | 16.67° C | 65% | 1012.3 hPa | 0 mm | - | 21 W/m² | - |
| 1777600249 | 16.67° C | 65% | 1012.4 hPa | 0 mm | - | 24 W/m² | - |
| 1777599945 | 17.22° C | 65% | 1012.6 hPa | 0 mm | - | 28 W/m² | - |
| 1777599642 | 17.22° C | 65% | 1012.3 hPa | 0 mm | - | 32 W/m² | - |
| 1777599339 | 17.22° C | 64% | 1012.3 hPa | 0 mm | - | 33 W/m² | - |
| 1777599035 | 17.78° C | 63% | 1012.4 hPa | 0 mm | - | 36 W/m² | - |
| 1777598733 | 17.78° C | 62% | 1012.3 hPa | 0 mm | - | 37 W/m² | - |
| 1777598428 | 17.22° C | 63% | 1012.4 hPa | 0 mm | - | 41 W/m² | - |
| 1777598127 | 17.78° C | 62% | 1012.4 hPa | 0 mm | - | 43 W/m² | - |
| 1777597821 | 17.78° C | 61% | 1012.1 hPa | 0 mm | - | 46 W/m² | - |
* Rain latest hour (hover to see other rain measurements)
** Current wind speed in m/s (hover to see current wind gust speed)